TimeCDT,TemperatureF,Dew PointF,Humidity,Sea Level PressureIn,VisibilityMPH,Wind Direction,Wind SpeedMPH,Gust SpeedMPH,PrecipitationIn,Events,Conditions,WindDirDegrees,DateUTC
12:51 AM,77.0,66.0,69,30.04,10.0,West,4.6,-,N/A,,Clear,260,2013-09-06 05:51:00
1:51 AM,73.9,66.9,79,30.04,10.0,South,6.9,-,N/A,,Clear,190,2013-09-06 06:51:00
2:51 AM,73.0,66.0,79,30.04,10.0,SSW,5.8,-,N/A,,Clear,210,2013-09-06 07:51:00
3:51 AM,73.0,66.0,79,30.04,10.0,Calm,Calm,-,N/A,,Clear,0,2013-09-06 08:51:00
4:51 AM,71.1,66.0,84,30.03,10.0,Calm,Calm,-,N/A,,Clear,0,2013-09-06 09:51:00
5:51 AM,70.0,64.9,84,30.04,10.0,Calm,Calm,-,N/A,,Clear,0,2013-09-06 10:51:00
6:51 AM,69.1,66.0,90,30.05,10.0,Calm,Calm,-,N/A,,Clear,0,2013-09-06 11:51:00
7:51 AM,71.1,66.0,84,30.06,10.0,Calm,Calm,-,N/A,,Clear,0,2013-09-06 12:51:00
8:51 AM,75.9,66.9,74,30.08,10.0,Calm,Calm,-,N/A,,Clear,0,2013-09-06 13:51:00
9:51 AM,80.1,68.0,67,30.08,10.0,West,4.6,-,N/A,,Clear,260,2013-09-06 14:51:00
10:51 AM,82.9,68.0,60,30.09,10.0,Calm,Calm,-,N/A,,Clear,0,2013-09-06 15:51:00
11:51 AM,87.1,66.0,49,30.08,10.0,Calm,Calm,-,N/A,,Clear,0,2013-09-06 16:51:00
12:51 PM,91.0,62.1,38,30.05,10.0,Variable,3.5,-,N/A,,Partly Cloudy,0,2013-09-06 17:51:00
1:51 PM,91.0,57.9,33,30.02,10.0,Calm,Calm,-,N/A,,Partly Cloudy,0,2013-09-06 18:51:00
2:51 PM,93.9,57.0,29,30.00,10.0,ESE,8.1,-,N/A,,Mostly Cloudy,110,2013-09-06 19:51:00
3:51 PM,93.9,55.0,27,29.96,10.0,ESE,6.9,-,N/A,,Partly Cloudy,120,2013-09-06 20:51:00
4:51 PM,95.0,54.0,25,29.95,10.0,East,10.4,-,N/A,,Scattered Clouds,90,2013-09-06 21:51:00
5:51 PM,93.9,55.0,27,29.94,10.0,ESE,9.2,-,N/A,,Clear,110,2013-09-06 22:51:00
6:51 PM,93.0,55.0,28,29.93,10.0,ESE,10.4,-,N/A,,Clear,120,2013-09-06 23:51:00
7:51 PM,90.0,54.0,29,29.93,10.0,East,8.1,-,N/A,,Clear,100,2013-09-07 00:51:00
8:51 PM,84.9,57.0,38,29.94,10.0,ESE,6.9,-,N/A,,Clear,120,2013-09-07 01:51:00
9:51 PM,82.9,59.0,44,29.96,10.0,SE,5.8,-,N/A,,Clear,140,2013-09-07 02:51:00
10:51 PM,82.0,60.1,47,29.97,10.0,SSE,6.9,-,N/A,,Clear,150,2013-09-07 03:51:00
11:51 PM,79.0,62.1,56,29.97,10.0,South,5.8,-,N/A,,Clear,180,2013-09-07 04:51:00